ASIASAT 9 (42942 NORAD) Tracking and Keplerian Element Data

This shows tracking and keplerian element data for the satellite.

Feedback or suggestion? Click here.




ElementValue
Catalog42942
NameASIASAT 9
Epoch Orbit1456
Epoch Day261.17683193
Epoch Year2021
RAAN177.4215
Inclination0.0053
Eccentricity0.0002251
Argument of Perigee346.1983
Mean Anonmoly19.4587
Mean Motion1.00270553
Decay Rate-3.84E-06
L11 42942U 17057A 21261.17683193 -.00000384 00000-0 00000-0 0 9997
L22 42942 0.0053 177.4215 0002251 346.1983 19.4587 1.00270553 14565

Live tracking and technical data element details for ASIASAT 9 (NORAD 42942). ASIASAT 9 can be tracked NOW for your location showing map with azimuth and elevation plus other details from your city location.

Track the satellite on the map from your city or location and see movement details for azimuth, elevation, latitude, longitude, range, height, and movement on the map or in text.







IsCatalogInMostPopularTable: catalog: 42942, numindb: 586
Update: records affected: 1



GetName: 42942 ASIASAT 9

Hit Count: updated at: Sun, 26 Sep 2021 01:05:20 GMT